Regional Weather Roundup
Issued by NWS

Home | Current Version | Previous Version | Graphics & Text | Print | Product List | Glossary On
Versions: 1 2 3 4 5 6 7 8 9 10 11 12 13 14 15 16 17 18 19 20 21 22 23 24 25 26 27 28 29 30 31 32 33 34 35 36 37 38 39 40 41 42 43 44 45 46 47 48 49 50
000
ASUS45 KTFX 240104
RWRMT
MONTANA HOURLY WEATHER ROUNDUP
NATIONAL WEATHER SERVICE GREAT FALLS MT
604 PM MST SUN NOV 23 2014

NOTE: "FAIR" INDICATES FEW OR NO CLOUDS BELOW 12000 FEET WITH NO
SIGNIFICANT WEATHER AND/OR OBSTRUCTIONS TO VISIBILITY.

* THESE STATIONS ARE NOT UNDER NWS QUALITY CONTROL. THEY DO NOT
   REPORT WEATHER SUCH AS PRECIPITATION OR FOG.

MTZ001>007-043-240200-
WEST OF THE DIVIDE
CITY           SKY/WX    TMP DP  RH WIND       PRES   REMARKS
KALISPELL      SNOW      34  34 100 S12       29.88F WCI  25
MISSOULA       CLOUDY    37  28  70 S12       29.95F WCI  29
BUTTE          CLOUDY    28  18  66 CALM      29.93F
MULLAN PASS    LGT SNOW  27  23  85 W8G22     29.86F WCI  19
* ESSEX        N/A       31  30  96 N/A        N/A
* LINCOLN      N/A       30  28  92 W2G9       N/A
* LOOKOUT PASS N/A       30  30 100 SE7G17     N/A   WCI  23
* POLSON       N/A       32  31  96 S1G6       N/A
* RONAN APT    CLOUDY    36  30  79 SE7        N/A   WCI  30
* SEELEY LAKE  N/A       30  28  92 NE2        N/A
* THOMP F APT  CLOUDY    26  14  60 N1         N/A
* YAAK HILL    N/A       33  30  89 W1         N/A
$$

MTZ008-052>055-240200-
SOUTHWEST MONTANA
CITY           SKY/WX    TMP DP  RH WIND       PRES   REMARKS
BOZEMAN        CLOUDY    36  19  50 SW10      29.94F WCI  29
DILLON         CLOUDY    32  18  56 S16       29.95F WCI  21
* W YELLOWSTON CLOUDY    24  18  78 S3G11      N/A
* ENNIS APT    CLOUDY    34  16  48 SE9        N/A   WCI  27
* THREE FORKS  CLOUDY    39  18  43 W10G16     N/A   WCI  32
* BOULDER HILL N/A       31  13  47 S16G27     N/A   WCI  20
* MONIDA PASS  N/A       26  12  55 S5         N/A   WCI  20
* RAYNOLDS PAS N/A       27  18  69 SW7G12     N/A   WCI  19
* WHITEHALL    N/A       39  16  39 SW15G25    N/A   WCI  31
* WISE RIVER   N/A       30  18  61 NW11G19    N/A   WCI  21
$$

MTZ009>010-012-014-046-048-049-054-240200-
EAST SLOPES AND CENTRAL MONTANA
CITY           SKY/WX    TMP DP  RH WIND       PRES   REMARKS
CUT BANK       CLOUDY    36  25  64 W16G29    29.74F WCI  26
GREAT FALLS    CLOUDY    39  21  48 SW16      29.80F WCI  30
HELENA         CLOUDY    39  21  48 W10       29.88F WCI  32
MALMSTROM AFB  CLOUDY    39  23  53 SW16      29.83F WCI  30
* DEARBORN     N/A       40  21  47 S10G18     N/A   WCI  34
* EAST GLACIER N/A       29  24  82 W29G38     N/A   WCI  14
* MONARCH      N/A       31  15  51 SW22G31    N/A   WCI  18
* PENDROY      N/A       40  18  41 W22G51     N/A   WCI  30
* ROGERS PASS  N/A       28  24  85 SE24G35    N/A   WCI  14
* SAINT MARY   N/A       31  25  78 S9G27      N/A   WCI  23
* SWEET GRASS  N/A       36  21  54 SW14G22    N/A   WCI  27
$$

MTZ011-013-016-021-035-040-045-047-050-051-240200-
NORTH CENTRAL MONTANA
CITY           SKY/WX    TMP DP  RH WIND       PRES   REMARKS
HAVRE          CLOUDY    34  25  70 SW7       29.79S WCI  28
LEWISTOWN      CLOUDY    34  18  52 W10       29.81F WCI  26
* N BAR RANCH  CLEAR     32  12  43 W9        29.82R WCI  24
* CHESTER      N/A       36  23  59 SW6        N/A   WCI  31
* DENTON       N/A       31  16  54 SW7        N/A   WCI  24
* GEYSER       N/A       37  16  42 W21G27     N/A   WCI  26
* JUDITH GAP   N/A       33  16  50 W17G22     N/A   WCI  22
* LOMA         N/A       39  22  51 SW6        N/A   WCI  35
$$

MTZ017>020-022>027-061-062-240200-
NORTHEAST MONTANA
CITY           SKY/WX    TMP DP  RH WIND       PRES   REMARKS
GLASGOW        CLEAR     21  16  81 N5        29.83S WCI  14
GLENDIVE       MOCLDY    21  16  81 NW7       29.83R WCI  12
JORDAN         CLEAR     27  21  78 E6        29.81S WCI  20
SIDNEY         MOCLDY    21  16  81 NW3       29.84R
WOLF POINT     PTCLDY    23  16  74 CALM      29.86R
* BEAVER HILL  N/A       20  14  77 W16        N/A   WCI   6
* CIRCLE       N/A       24  20  85 NW5        N/A   WCI  18
* LINDSAY DVD  N/A       18  16  92 NW14G19    N/A   WCI   4
* NAVAJO       N/A       18  14  84 N11G16     N/A   WCI   6
* SACO         N/A       22  17  81 NE5        N/A   WCI  15
$$

MTZ028>042-056>058-240200-
SOUTHCENTRAL AND SOUTHEAST MONTANA
CITY           SKY/WX    TMP DP  RH WIND       PRES   REMARKS
BAKER          CLOUDY    23  16  74 NW18G24   29.78S WCI   9
BILLINGS       PTCLDY    36  16  44 W9        29.86S WCI  29
LIVINGSTON     CLOUDY    37  14  39 W15       29.88F WCI  28
MILES CITY     PTCLDY    30  23  75 N10       29.82R WCI  21
* LAUREL APT   PTCLDY    37  12  36 W7         N/A   WCI  32
* ALZADA       N/A       31  24  75 W9         N/A   WCI  23
* HYSHAM       N/A       36  13  39 W4         N/A
* LAME DEER    N/A       31  16  54 NW8G13     N/A   WCI  24
* REED POINT   N/A       38  16  41 W9G18      N/A   WCI  32
* ROSCOE HILL  N/A       34   3  27 W4G17      N/A
$$

REGIONAL REPORTS...DAKOTAS
CITY           SKY/WX    TMP DP  RH WIND       PRES   REMARKS
WILLISTON      PTCLDY    18  10  71 NW9       29.80S WCI   7
DICKINSON      CLOUDY    23  16  74 NW25G33   29.70S WCI   7
BEACH          CLOUDY    19  18  96 NW10      29.79R WCI   8
CROSBY         CLEAR     12  10  92 NW14      29.81S WCI  -4
BISMARCK       CLOUDY    21  12  68 NW24G33   29.68S WCI   4
GRAND FORKS    LGT SNOW  19  18  96 NW21G28   29.57R WCI   3
FARGO          CLOUDY    28  23  81 N20       29.54R WCI  15
BUFFALO SD     PTCLDY    27  19  72 NW25      29.66F WCI  12
RAPID CITY     PTCLDY    34  21  59 NW20G28   29.72S WCI  23
$$

REGIONAL REPORTS...WYOMING/IDAHO/WASHINGTON
CITY           SKY/WX    TMP DP  RH WIND       PRES   REMARKS
SHERIDAN       MOCLDY    30  16  56 W10       29.85S WCI  21
CODY           PTCLDY    34   9  35 W6G16     29.88R WCI  29
YELLOWSTONE LA CLOUDY    19  12  74 VRB5      29.98F WCI  12
SALMON         CLOUDY    37  21  52 W13       30.04F WCI  29
MULLAN PASS    LGT SNOW  27  23  85 W8G22     29.86S WCI  19
SAND POINT     CLOUDY    36  36 100 SW7       29.96R WCI  30
SPOKANE        MOCLDY    37  34  89 W16       29.99R WCI  28

$$



USA.gov is the U.S. government's official web portal to all federal, state and local government web resources and services.